Time,TemperatureF,DewpointF,PressureIn,WindDirection,WindDirectionDegrees,WindSpeedMPH,WindSpeedGustMPH,Humidity,HourlyPrecipIn,Conditions,Clouds,dailyrainin,SoftwareType,DateUTC
2013-02-18 00:10:00,18.0,3.0,29.60,NNW,335,6.0,-999.0,51,-99.99,,,0.00,weatherlink.com 1.10,2013-02-18 05:10:00,
2013-02-18 00:25:00,17.9,3.0,29.61,NNW,342,13.0,-999.0,52,-99.99,,,0.00,weatherlink.com 1.10,2013-02-18 05:25:00,
2013-02-18 00:40:00,17.8,3.0,29.61,NNW,346,9.0,-999.0,52,-99.99,,,0.00,weatherlink.com 1.10,2013-02-18 05:40:00,
2013-02-18 00:55:00,17.5,3.0,29.62,North,355,4.0,-999.0,53,-99.99,,,0.00,weatherlink.com 1.10,2013-02-18 05:55:00,
2013-02-18 01:10:00,17.4,3.0,29.62,NNW,337,14.0,-999.0,53,-99.99,,,0.00,weatherlink.com 1.10,2013-02-18 06:10:00,
2013-02-18 01:26:00,17.2,3.0,29.63,North,5,11.0,-999.0,53,-99.99,,,0.00,weatherlink.com 1.10,2013-02-18 06:26:00,
2013-02-18 01:40:00,17.0,2.0,29.63,NW,311,13.0,-999.0,53,-99.99,,,0.00,weatherlink.com 1.10,2013-02-18 06:40:00,
2013-02-18 01:55:00,17.0,3.0,29.64,NW,312,4.0,-999.0,54,-99.99,,,0.00,weatherlink.com 1.10,2013-02-18 06:55:00,
2013-02-18 02:10:00,16.9,3.0,29.64,NNW,331,13.0,-999.0,54,-99.99,,,0.00,weatherlink.com 1.10,2013-02-18 07:10:00,
2013-02-18 02:26:00,16.8,3.0,29.65,South,188,2.0,-999.0,54,-99.99,,,0.00,weatherlink.com 1.10,2013-02-18 07:26:00,
2013-02-18 02:40:00,16.7,3.0,29.66,NW,323,6.0,-999.0,54,-99.99,,,0.00,weatherlink.com 1.10,2013-02-18 07:40:00,
2013-02-18 02:56:00,16.5,2.0,29.66,NW,313,7.0,-999.0,54,-99.99,,,0.00,weatherlink.com 1.10,2013-02-18 07:56:00,
2013-02-18 03:10:00,16.4,3.0,29.67,NNW,331,4.0,-999.0,55,-99.99,,,0.00,weatherlink.com 1.10,2013-02-18 08:10:00,
2013-02-18 03:25:00,16.3,3.0,29.69,North,5,2.0,-999.0,55,-99.99,,,0.00,weatherlink.com 1.10,2013-02-18 08:25:00,
2013-02-18 03:40:00,16.1,2.0,29.69,North,355,3.0,-999.0,55,-99.99,,,0.00,weatherlink.com 1.10,2013-02-18 08:40:00,
2013-02-18 03:56:00,16.0,2.0,29.70,NNW,347,11.0,-999.0,55,-99.99,,,0.00,weatherlink.com 1.10,2013-02-18 08:56:00,
2013-02-18 04:11:00,16.0,2.0,29.72,North,360,10.0,-999.0,55,-99.99,,,0.00,weatherlink.com 1.10,2013-02-18 09:11:00,
2013-02-18 04:26:00,15.9,5.0,29.72,West,259,2.0,-999.0,61,-99.99,,,0.00,weatherlink.com 1.10,2013-02-18 09:26:00,
2013-02-18 04:40:00,15.9,3.0,29.73,North,355,5.0,-999.0,56,-99.99,,,0.00,weatherlink.com 1.10,2013-02-18 09:40:00,
2013-02-18 04:55:00,15.9,2.0,29.74,NW,306,4.0,-999.0,55,-99.99,,,0.00,weatherlink.com 1.10,2013-02-18 09:55:00,
2013-02-18 05:11:00,15.9,3.0,29.75,NW,321,8.0,-999.0,56,-99.99,,,0.00,weatherlink.com 1.10,2013-02-18 10:11:00,
2013-02-18 05:25:00,15.8,3.0,29.75,NNW,329,5.0,-999.0,56,-99.99,,,0.00,weatherlink.com 1.10,2013-02-18 10:25:00,
2013-02-18 05:40:00,15.7,2.0,29.76,North,355,4.0,-999.0,56,-99.99,,,0.00,weatherlink.com 1.10,2013-02-18 10:40:00,
2013-02-18 05:55:00,16.0,3.0,29.77,NNW,330,1.0,-999.0,56,-99.99,,,0.00,weatherlink.com 1.10,2013-02-18 10:55:00,
2013-02-18 06:10:00,15.9,3.0,29.78,NNE,26,2.0,-999.0,56,-99.99,,,0.00,weatherlink.com 1.10,2013-02-18 11:10:00,
2013-02-18 06:25:00,15.9,3.0,29.79,NNW,336,2.0,-999.0,56,-99.99,,,0.00,weatherlink.com 1.10,2013-02-18 11:25:00,
2013-02-18 06:41:00,15.9,2.0,29.80,NNW,327,10.0,-999.0,55,-99.99,,,0.00,weatherlink.com 1.10,2013-02-18 11:41:00,
2013-02-18 06:55:00,15.9,2.0,29.81,WNW,296,8.0,-999.0,55,-99.99,,,0.00,weatherlink.com 1.10,2013-02-18 11:55:00,
2013-02-18 07:10:00,15.8,2.0,29.82,NNE,17,3.0,-999.0,55,-99.99,,,0.00,weatherlink.com 1.10,2013-02-18 12:10:00,
2013-02-18 07:26:00,15.9,2.0,29.83,NNW,338,15.0,-999.0,55,-99.99,,,0.00,weatherlink.com 1.10,2013-02-18 12:26:00,
2013-02-18 07:40:00,16.2,3.0,29.83,West,273,7.0,-999.0,55,-99.99,,,0.00,weatherlink.com 1.10,2013-02-18 12:40:00,
2013-02-18 07:55:00,16.5,2.0,29.84,NNW,330,9.0,-999.0,54,-99.99,,,0.00,weatherlink.com 1.10,2013-02-18 12:55:00,
2013-02-18 08:10:00,17.1,2.0,29.84,NNW,344,5.0,-999.0,52,-99.99,,,0.00,weatherlink.com 1.10,2013-02-18 13:10:00,
2013-02-18 08:25:00,17.8,3.0,29.86,NNW,340,9.0,-999.0,52,-99.99,,,0.00,weatherlink.com 1.10,2013-02-18 13:25:00,
2013-02-18 08:40:00,18.9,3.0,29.86,NNW,340,10.0,-999.0,50,-99.99,,,0.00,weatherlink.com 1.10,2013-02-18 13:40:00,
2013-02-18 08:56:00,19.9,3.0,29.86,WNW,290,13.0,-999.0,49,-99.99,,,0.00,weatherlink.com 1.10,2013-02-18 13:56:00,
2013-02-18 09:10:00,20.5,4.0,29.87,NNE,17,12.0,-999.0,48,-99.99,,,0.00,weatherlink.com 1.10,2013-02-18 14:10:00,
2013-02-18 09:25:00,21.2,4.0,29.86,NNW,335,9.0,-999.0,47,-99.99,,,0.00,weatherlink.com 1.10,2013-02-18 14:25:00,
2013-02-18 09:40:00,21.8,4.0,29.87,WNW,302,15.0,-999.0,47,-99.99,,,0.00,weatherlink.com 1.10,2013-02-18 14:40:00,
2013-02-18 09:55:00,22.5,4.0,29.88,NNE,19,8.0,-999.0,46,-99.99,,,0.00,weatherlink.com 1.10,2013-02-18 14:55:00,
2013-02-18 10:10:00,23.3,5.0,29.88,NNW,339,4.0,-999.0,45,-99.99,,,0.00,weatherlink.com 1.10,2013-02-18 15:10:00,
2013-02-18 10:40:00,24.5,2.0,29.88,WNW,300,10.0,-999.0,38,-99.99,,,0.00,weatherlink.com 1.10,2013-02-18 15:40:00,
2013-02-18 10:56:00,25.6,2.0,29.88,NNW,338,12.0,-999.0,36,-99.99,,,0.00,weatherlink.com 1.10,2013-02-18 15:56:00,
2013-02-18 11:11:00,26.5,2.0,29.88,NNW,335,12.0,-999.0,35,-99.99,,,0.00,weatherlink.com 1.10,2013-02-18 16:11:00,
2013-02-18 11:26:00,27.7,3.0,29.89,WNW,294,17.0,-999.0,34,-99.99,,,0.00,weatherlink.com 1.10,2013-02-18 16:26:00,
2013-02-18 11:41:00,28.3,2.0,29.89,WNW,299,10.0,-999.0,33,-99.99,,,0.00,weatherlink.com 1.10,2013-02-18 16:41:00,
2013-02-18 11:56:00,28.6,2.0,29.89,NNE,15,11.0,-999.0,32,-99.99,,,0.00,weatherlink.com 1.10,2013-02-18 16:56:00,
2013-02-18 12:11:00,29.1,1.0,29.90,NW,326,17.0,-999.0,30,-99.99,,,0.00,weatherlink.com 1.10,2013-02-18 17:11:00,
2013-02-18 12:25:00,29.8,1.0,29.90,NW,307,5.0,-999.0,29,-99.99,,,0.00,weatherlink.com 1.10,2013-02-18 17:25:00,
2013-02-18 12:55:00,30.9,2.0,29.91,North,351,9.0,-999.0,29,-99.99,,,0.00,weatherlink.com 1.10,2013-02-18 17:55:00,
2013-02-18 13:10:00,31.4,2.0,29.91,NNW,328,4.0,-999.0,29,-99.99,,,0.00,weatherlink.com 1.10,2013-02-18 18:10:00,
2013-02-18 13:26:00,31.4,1.0,29.92,West,269,7.0,-999.0,27,-99.99,,,0.00,weatherlink.com 1.10,2013-02-18 18:26:00,
2013-02-18 13:40:00,31.8,4.0,29.92,NNW,342,6.0,-999.0,30,-99.99,,,0.00,weatherlink.com 1.10,2013-02-18 18:40:00,
2013-02-18 13:55:00,32.1,1.0,29.92,NNW,344,2.0,-999.0,26,-99.99,,,0.00,weatherlink.com 1.10,2013-02-18 18:55:00,
2013-02-18 14:10:00,31.8,1.0,29.93,NNE,13,6.0,-999.0,27,-99.99,,,0.00,weatherlink.com 1.10,2013-02-18 19:10:00,
2013-02-18 14:26:00,32.5,2.0,29.93,WNW,302,5.0,-999.0,27,-99.99,,,0.00,weatherlink.com 1.10,2013-02-18 19:26:00,
2013-02-18 14:40:00,32.7,2.0,29.94,NW,307,5.0,-999.0,27,-99.99,,,0.00,weatherlink.com 1.10,2013-02-18 19:40:00,
2013-02-18 14:56:00,32.3,2.0,29.94,NW,317,7.0,-999.0,28,-99.99,,,0.00,weatherlink.com 1.10,2013-02-18 19:56:00,
2013-02-18 15:25:00,31.3,1.0,29.95,West,280,2.0,-999.0,27,-99.99,,,0.00,weatherlink.com 1.10,2013-02-18 20:25:00,
2013-02-18 15:40:00,31.6,1.0,29.95,NW,304,6.0,-999.0,27,-99.99,,,0.00,weatherlink.com 1.10,2013-02-18 20:40:00,
2013-02-18 15:55:00,31.7,0.0,29.96,NW,309,9.0,-999.0,26,-99.99,,,0.00,weatherlink.com 1.10,2013-02-18 20:55:00,
2013-02-18 16:10:00,31.5,0.0,29.96,North,360,11.0,-999.0,26,-99.99,,,0.00,weatherlink.com 1.10,2013-02-18 21:10:00,
2013-02-18 16:25:00,31.1,0.0,29.97,NNW,342,3.0,-999.0,26,-99.99,,,0.00,weatherlink.com 1.10,2013-02-18 21:25:00,
2013-02-18 16:40:00,30.9,0.0,29.98,NNW,330,12.0,-999.0,27,-99.99,,,0.00,weatherlink.com 1.10,2013-02-18 21:40:00,
2013-02-18 17:10:00,30.6,-1.0,29.99,WNW,296,2.0,-999.0,26,-99.99,,,0.00,weatherlink.com 1.10,2013-02-18 22:10:00,
2013-02-18 17:26:00,30.3,0.0,29.99,South,182,0.0,-999.0,27,-99.99,,,0.00,weatherlink.com 1.10,2013-02-18 22:26:00,
2013-02-18 17:40:00,29.9,1.0,30.00,West,266,0.0,-999.0,29,-99.99,,,0.00,weatherlink.com 1.10,2013-02-18 22:40:00,
2013-02-18 17:55:00,29.4,3.0,30.01,West,281,0.0,-999.0,32,-99.99,,,0.00,weatherlink.com 1.10,2013-02-18 22:55:00,
2013-02-18 18:11:00,29.0,2.0,30.02,NNW,340,2.0,-999.0,32,-99.99,,,0.00,weatherlink.com 1.10,2013-02-18 23:11:00,
2013-02-18 18:25:00,28.7,2.0,30.02,North,355,1.0,-999.0,32,-99.99,,,0.00,weatherlink.com 1.10,2013-02-18 23:25:00,
2013-02-18 18:41:00,28.5,2.0,30.02,NW,315,3.0,-999.0,32,-99.99,,,0.00,weatherlink.com 1.10,2013-02-18 23:41:00,
2013-02-18 18:55:00,28.3,2.0,30.03,WNW,292,0.0,-999.0,32,-99.99,,,0.00,weatherlink.com 1.10,2013-02-18 23:55:00,
2013-02-18 19:11:00,27.9,2.0,30.03,SW,224,6.0,-999.0,33,-99.99,,,0.00,weatherlink.com 1.10,2013-02-19 00:11:00,
2013-02-18 19:25:00,27.6,3.0,30.04,WSW,240,0.0,-999.0,34,-99.99,,,0.00,weatherlink.com 1.10,2013-02-19 00:25:00,
2013-02-18 19:41:00,27.3,3.0,30.05,West,259,0.0,-999.0,36,-99.99,,,0.00,weatherlink.com 1.10,2013-02-19 00:41:00,
2013-02-18 19:55:00,27.0,3.0,30.05,WNW,289,0.0,-999.0,36,-99.99,,,0.00,weatherlink.com 1.10,2013-02-19 00:55:00,
2013-02-18 20:11:00,26.7,3.0,30.06,West,267,0.0,-999.0,36,-99.99,,,0.00,weatherlink.com 1.10,2013-02-19 01:11:00,
2013-02-18 20:25:00,26.5,3.0,30.06,West,261,2.0,-999.0,37,-99.99,,,0.00,weatherlink.com 1.10,2013-02-19 01:25:00,
2013-02-18 20:41:00,26.3,4.0,30.06,SW,232,0.0,-999.0,38,-99.99,,,0.00,weatherlink.com 1.10,2013-02-19 01:41:00,
2013-02-18 20:56:00,26.1,4.0,30.06,West,261,0.0,-999.0,38,-99.99,,,0.00,weatherlink.com 1.10,2013-02-19 01:56:00,
2013-02-18 21:10:00,25.9,3.0,30.07,West,271,0.0,-999.0,38,-99.99,,,0.00,weatherlink.com 1.10,2013-02-19 02:10:00,
2013-02-18 21:25:00,25.7,4.0,30.07,West,259,0.0,-999.0,39,-99.99,,,0.00,weatherlink.com 1.10,2013-02-19 02:25:00,
2013-02-18 21:40:00,25.6,4.0,30.07,NW,305,0.0,-999.0,39,-99.99,,,0.00,weatherlink.com 1.10,2013-02-19 02:40:00,
2013-02-18 21:56:00,25.5,4.0,30.07,WNW,286,1.0,-999.0,39,-99.99,,,0.00,weatherlink.com 1.10,2013-02-19 02:56:00,
2013-02-18 22:10:00,25.2,4.0,30.07,WSW,244,2.0,-999.0,40,-99.99,,,0.00,weatherlink.com 1.10,2013-02-19 03:10:00,
2013-02-18 22:26:00,24.8,4.0,30.08,NW,309,3.0,-999.0,41,-99.99,,,0.00,weatherlink.com 1.10,2013-02-19 03:26:00,
2013-02-18 22:40:00,24.7,4.0,30.09,West,262,0.0,-999.0,42,-99.99,,,0.00,weatherlink.com 1.10,2013-02-19 03:40:00,
2013-02-18 23:11:00,24.7,4.0,30.09,NNW,330,0.0,-999.0,41,-99.99,,,0.00,weatherlink.com 1.10,2013-02-19 04:11:00,
2013-02-18 23:25:00,24.8,5.0,30.09,West,280,1.0,-999.0,42,-99.99,,,0.00,weatherlink.com 1.10,2013-02-19 04:25:00,
2013-02-18 23:41:00,24.7,4.0,30.10,WNW,292,5.0,-999.0,42,-99.99,,,0.00,weatherlink.com 1.10,2013-02-19 04:41:00,